Terminal Aerodrome Forecast
Issued by NWS

Home | Current Version | Previous Version | Text Only | Print | Product List | Glossary Off
Versions: 1 2 3 4 5 6 7 8 9 10 11 12 13 14 15 16 17 18 19 20 21 22 23 24 25 26 27 28 29 30 31 32 33 34 35 36

000
FTUS43 KLOT 171733 CCA
TAFMDW
TAF COR
KMDW 171733Z 1718/1818 25006KT P6SM BKN080
     FM172200 09007KT P6SM SCT080
     FM180200 21004KT P6SM SCT060
     FM181100 02005KT P6SM BKN060
     FM181400 05012G17KT P6SM BKN060=

USA.gov is the U.S. government's official web portal to all federal, state and local government web resources and services.